Home   Weather   Nancy   Past weeks

Flag for France Past Weather in Nancy, Lorraine, France — Yesterday and Last 2 Weeks

Now
23 °F

Clear.


Feels Like: 10 °F
Forecast: 19 / 30 °F
Wind: 15 mph from East

Location: Nancy / Ochey

Current Time: Jan 19, 2017 at 1:34:35 am

Latest Report: Jan 19, 2017 at 1:00 am


Visibility: 10 mi

Pressure: 30.42 "Hg

Humidity: 74%

Dew Point: 16 °F

Location of NancyLocation

Past Weather in Nancy — Graph

°F

Nancy Temperature Yesterday

Maximum temperature yesterday: 30 °F (at 1:00 pm)
Minimum temperature yesterday: 23 °F (at 1:30 am)
Average temperature yesterday: 25 °F

High & Low Weather Summary for the Past Weeks

 TemperatureHumidityPressure
High45 °F (Jan 11, 6:30 pm)100% (Jan 4, 12:00 am)30.66 "Hg (Jan 4, 12:00 am)
Low10 °F (Jan 7, 6:00 am)59% (Jan 6, 1:30 pm)29.33 "Hg (Jan 12, 10:00 pm)
Average30 °F90%30.19 "Hg
* Reported Jan 4 12:00 am — Jan 19 12:00 am, Nancy, Weather by CustomWeather, © 2017

Note: Actual official high and low records may vary slightly from our data, if they occured in-between our weather recording intervals... More about our weather records

Advertising

Nancy Weather History for the Previous 24 Hours

Scroll right to see more
 ConditionsComfort  
Time TempWeatherWind HumidityBarometerVisibility
12:00 am
Thu, Jan 19
23 °FClear.14 mph74%30.42 "Hg10 mi
11:30 pm
Wed, Jan 18
23 °FClear.17 mph74%30.42 "Hg10 mi
11:00 pm23 °FClear.15 mph74%30.42 "Hg10 mi
10:30 pm23 °FClear.14 mph74%30.42 "Hg10 mi
10:00 pm23 °FClear.12 mph74%30.42 "Hg10 mi
9:30 pm25 °FClear.14 mph69%30.45 "Hg10 mi
9:00 pm25 °FClear.15 mph69%30.45 "Hg10 mi
8:30 pm25 °FClear.14 mph69%30.45 "Hg10 mi
8:00 pm25 °FClear.13 mph69%30.45 "Hg10 mi
7:30 pm25 °FPassing clouds.14 mph69%30.45 "HgN/A
7:00 pm27 °FPassing clouds.13 mph64%30.45 "HgN/A
6:30 pm27 °FPassing clouds.12 mph64%30.45 "HgN/A
6:00 pm27 °FPassing clouds.14 mph64%30.45 "HgN/A
5:30 pm27 °FClear.17 mph69%30.45 "Hg10 mi
5:00 pm28 °FSunny.15 mph64%30.45 "Hg10 mi
4:30 pm28 °FSunny.15 mph64%30.45 "Hg10 mi
4:00 pm28 °FSunny.18 mph64%30.45 "Hg10 mi
3:30 pm28 °FSunny.18 mph64%30.42 "Hg10 mi
3:00 pm30 °FPassing clouds.17 mph59%30.42 "HgN/A
2:30 pm28 °FSunny.17 mph64%30.42 "Hg10 mi
2:00 pm28 °FSunny.20 mph64%30.45 "Hg10 mi
1:30 pm28 °FSunny.21 mph64%30.42 "Hg10 mi
1:00 pm30 °FPassing clouds.16 mph59%30.42 "HgN/A
12:30 pm28 °FPassing clouds.16 mph64%30.45 "HgN/A
12:00 pm28 °FPassing clouds.18 mph69%30.45 "HgN/A
11:30 am27 °FPassing clouds.18 mph69%30.45 "HgN/A
11:00 am27 °FPassing clouds.18 mph69%30.45 "HgN/A
10:30 am25 °FSunny.22 mph74%30.45 "Hg10 mi
10:00 am25 °FSunny.20 mph74%30.45 "Hg10 mi
9:30 am23 °FSunny.17 mph80%30.45 "Hg10 mi
9:00 am23 °FPassing clouds.16 mph80%30.45 "HgN/A
8:30 am23 °FSunny.16 mph80%30.42 "Hg10 mi
8:00 am23 °FClear.14 mph80%30.42 "Hg10 mi
7:30 am23 °FPassing clouds.15 mph80%30.42 "HgN/A
7:00 am23 °FPassing clouds.14 mph80%30.42 "HgN/A
6:30 am23 °FPassing clouds.12 mph80%30.42 "HgN/A
6:00 am23 °FPassing clouds.16 mph80%30.42 "HgN/A
5:30 am23 °FPassing clouds.15 mph80%30.42 "HgN/A
5:00 am23 °FClear.14 mph80%30.42 "Hg10 mi
4:30 am23 °FPassing clouds.13 mph80%30.42 "HgN/A
4:00 am23 °FPassing clouds.13 mph80%30.42 "HgN/A
3:30 am23 °FClear.15 mph80%30.42 "Hg10 mi
3:00 am23 °FClear.14 mph80%30.42 "Hg10 mi
2:30 am23 °FClear.10 mph80%30.45 "Hg10 mi
2:00 am23 °FPassing clouds.12 mph80%30.45 "HgN/A
1:30 am23 °FClear.12 mph80%30.45 "Hg10 mi
1:00 am25 °FPassing clouds.15 mph74%30.45 "HgN/A
Weather by CustomWeather, © 2017

See weather overviewHow to use our weather pages